Simultaneous Nadir Overpasses (SNOs) Predictions

Prediction of SNOs between AQUA and NOAA-19 Satellite Orbit:

Table of predicted SNOs for the next 14.0 days since TLE Epoch: 2/17/2024
Index Date (AQUA) Time (AQUA) Lat,Lon (AQUA) SZA (AQUA ) Date (NOAA-19) Time (NOAA-19) Lat,Lon (NOAA-19) SZA (NOAA-19 ) Distance(km) Time Diff (sec)
1 02/18/2024 12:11:49 75.83, -7.51 87.59 02/18/2024 12:10:36 75.74, -8.01 87.53 16.77 73
2 02/18/2024 13:01:13 -75.93, 159.84 92.32 02/18/2024 13:01:31 -75.92, 159.87 92.33 1.26 18
3 02/20/2024 16:52:16 75.88, -77.74 86.86 02/20/2024 16:51:42 75.87, -77.80 86.86 2.15 34
4 02/20/2024 17:41:39 -75.93, 89.77 93.10 02/20/2024 17:42:39 -75.93, 89.68 93.10 2.54 60
5 02/22/2024 20:43:07 -75.38, 46.01 94.47 02/22/2024 20:42:02 -75.33, 42.91 94.40 87.23 65
6 02/22/2024 21:32:41 75.89,-147.83 86.07 02/22/2024 21:32:50 75.89,-147.93 86.08 2.81 9
7 02/25/2024 01:23:41 -75.88, -25.54 94.73 02/25/2024 01:22:58 -75.87, -25.50 94.74 2.13 43
8 02/25/2024 02:13:05 75.90, 142.05 85.28 02/25/2024 02:13:58 75.91, 141.90 85.29 4.20 53
9 02/27/2024 06:04:04 -75.90, -95.66 95.53 02/27/2024 06:04:05 -75.90, -95.61 95.54 1.41 1
10 02/29/2024 09:55:02 75.84, 26.81 83.59 02/29/2024 09:54:17 75.85, 26.75 83.61 2.03 45



Historial Predications of SNOs between AQUA and NOAA-19
